| time (UTC) | temp C | wind direction | speed KPH | gust KPH | rain 1hr cm | rain 24hr cm | rain mn cm | humidity % | barometer mb |
| 20260502220003 | 10 | 298 | 1.6 | 4.8 | 0.03 | 1.37 | 1.37 | 97 | 1008.6 |
| 20260502214502 | 10 | 328 | 0.0 | 4.8 | 0.05 | 1.37 | 1.37 | 97 | 1008.6 |
| 20260502213002 | 10 | 321 | 0.0 | 0.0 | 0.05 | 1.37 | 1.37 | 97 | 1008.7 |
| 20260502211559 | 10 | 321 | 0.0 | 1.6 | 0.05 | 1.37 | 1.37 | 97 | 1008.9 |
| 20260502210058 | 10 | 321 | 0.0 | 4.8 | 0.05 | 1.37 | 1.37 | 97 | 1009.2 |
| 20260502204615 | 10 | 323 | 0.0 | 4.8 | 0.05 | 1.35 | 1.35 | 96 | 1009.4 |
| 20260502203059 | 10 | 330 | 1.6 | 6.4 | 0.05 | 1.32 | 1.32 | 97 | 1009.3 |
| 20260502201559 | 10 | 329 | 1.6 | 6.4 | 0.15 | 1.32 | 1.32 | 96 | 1009.3 |
| 20260502200058 | 10 | 9 | 3.2 | 12.9 | 0.28 | 1.32 | 1.32 | 96 | 1009.1 |
| 20260502194555 | 10 | 13 | 1.6 | 9.7 | 0.46 | 1.30 | 1.30 | 96 | 1009.1 |
| 20260502193055 | 10 | 343 | 3.2 | 9.7 | 0.58 | 1.27 | 1.27 | 96 | 1009.1 |
| 20260502191601 | 11 | 336 | 4.8 | 8.0 | 0.53 | 1.17 | 1.17 | 96 | 1009.2 |
| 20260502190053 | 11 | 321 | 6.4 | 16.1 | 0.43 | 1.04 | 1.04 | 95 | 1009.4 |
| 20260502184552 | 11 | 331 | 0.0 | 3.2 | 0.25 | 0.81 | 0.81 | 95 | 1009.5 |
| 20260502183052 | 12 | 320 | 3.2 | 9.7 | 0.23 | 0.69 | 0.69 | 95 | 1009.3 |
| 20260502181553 | 12 | 18 | 3.2 | 9.7 | 0.23 | 0.64 | 0.64 | 95 | 1009.1 |
| 20260502163051 | 14 | 150 | 0.0 | 3.2 | 0.15 | 0.23 | 0.18 | 85 | 1010.7 |
| 20260502161540 | 15 | 148 | 1.6 | 4.8 | 0.05 | 0.13 | 0.08 | 80 | 1010.8 |
| 20260502151543 | 16 | 40 | 1.6 | 6.4 | 0.00 | 0.08 | 0.05 | 74 | 1010.6 |
| 20260502123002 | 16 | 307 | 0.0 | 9.7 | 0.00 | 0.15 | 0.05 | 74 | 1013.0 |
| 20260502121600 | 16 | 168 | 8.0 | 11.3 | 0.00 | 0.15 | 0.05 | 77 | 1013.1 |
| 20260502114554 | 15 | 206 | 3.2 | 11.3 | 0.00 | 0.15 | 0.05 | 75 | 1013.6 |
| 20260502113053 | 15 | 267 | 3.2 | 9.7 | 0.00 | 0.15 | 0.05 | 77 | 1013.7 |
| 20260502111553 | 15 | 246 | 6.4 | 12.9 | 0.00 | 0.15 | 0.05 | 78 | 1013.8 |
| 20260502110047 | 14 | 236 | 4.8 | 11.3 | 0.00 | 0.15 | 0.05 | 78 | 1014.4 |
| 20260502104544 | 13 | 248 | 3.2 | 11.3 | 0.00 | 0.15 | 0.05 | 81 | 1014.4 |
| 20260502103041 | 13 | 168 | 8.0 | 16.1 | 0.00 | 0.15 | 0.05 | 83 | 1014.6 |
| 20260502101538 | 13 | 167 | 4.8 | 12.9 | 0.00 | 0.15 | 0.05 | 86 | 1014.8 |
| 20260502091524 | 12 | 192 | 1.6 | 8.0 | 0.00 | 0.15 | 0.05 | 98 | 1015.0 |
| 20260502071502 | 6 | 293 | 0.0 | 1.6 | 0.00 | 0.15 | 0.05 | 99 | 1016.0 |
| 20260502070101 | 6 | 293 | 0.0 | 3.2 | 0.00 | 0.15 | 0.05 | 99 | 1016.0 |
| 20260502064601 | 5 | 293 | 0.0 | 1.6 | 0.03 | 0.15 | 0.05 | 99 | 1015.8 |
| 20260502063120 | 5 | 9 | 0.0 | 0.0 | 0.03 | 0.15 | 0.05 | 99 | 1015.9 |
| 20260502061556 | 5 | 9 | 0.0 | 0.0 | 0.03 | 0.15 | 0.05 | 99 | 1016.2 |
| 20260502060054 | 5 | 9 | 0.0 | 0.0 | 0.03 | 0.15 | 0.05 | 98 | 1016.0 |
| 20260502054551 | 4 | 355 | 0.0 | 0.0 | 0.00 | 0.13 | 0.03 | 98 | 1015.8 |
| 20260502053059 | 4 | 355 | 0.0 | 0.0 | 0.00 | 0.13 | 0.03 | 98 | 1015.8 |
| 20260502051551 | 4 | 355 | 0.0 | 3.2 | 0.00 | 0.13 | 0.03 | 98 | 1015.8 |
| 20260502050049 | 4 | 355 | 1.6 | 4.8 | 0.00 | 0.13 | 0.03 | 98 | 1015.8 |
| 20260502044549 | 4 | 53 | 0.0 | 0.0 | 0.00 | 0.13 | 0.03 | 98 | 1015.9 |
| 20260502043048 | 5 | 53 | 0.0 | 0.0 | 0.00 | 0.13 | 0.03 | 98 | 1015.8 |
| 20260502041553 | 5 | 53 | 0.0 | 3.2 | 0.00 | 0.13 | 0.03 | 98 | 1016.0 |
| 20260502040046 | 4 | 53 | 0.0 | 0.0 | 0.00 | 0.13 | 0.03 | 98 | 1016.2 |
| 20260502034545 | 4 | 53 | 0.0 | 3.2 | 0.00 | 0.13 | 0.03 | 98 | 1016.3 |
| 20260502033043 | 5 | 53 | 3.2 | 4.8 | 0.00 | 0.13 | 0.03 | 97 | 1016.3 |
| 20260502031541 | 5 | 5 | 0.0 | 1.6 | 0.00 | 0.13 | 0.03 | 97 | 1016.3 |
| 20260502030042 | 5 | 5 | 0.0 | 1.6 | 0.00 | 0.13 | 0.03 | 97 | 1016.4 |
| 20260502024536 | 5 | 5 | 1.6 | 3.2 | 0.00 | 0.13 | 0.03 | 98 | 1016.4 |
| 20260502023036 | 5 | 5 | 0.0 | 4.8 | 0.00 | 0.13 | 0.03 | 97 | 1016.4 |
| 20260502021533 | 6 | 5 | 0.0 | 0.0 | 0.00 | 0.13 | 0.03 | 97 | 1016.4 |
| 20260502020029 | 6 | 5 | 0.0 | 0.0 | 0.00 | 0.13 | 0.03 | 98 | 1016.6 |
| 20260502014528 | 6 | 5 | 0.0 | 0.0 | 0.03 | 0.13 | 0.03 | 97 | 1016.6 |
| 20260502013027 | 7 | 5 | 0.0 | 0.0 | 0.03 | 0.13 | 0.03 | 97 | 1016.7 |
| 20260502011525 | 6 | 5 | 0.0 | 3.2 | 0.03 | 0.13 | 0.03 | 97 | 1016.9 |
| 20260502010023 | 6 | 5 | 1.6 | 3.2 | 0.03 | 0.13 | 0.03 | 97 | 1017.0 |
| 20260502004521 | 6 | 5 | 0.0 | 4.8 | 0.00 | 0.10 | 0.00 | 97 | 1017.1 |
| 20260502003018 | 7 | 58 | 0.0 | 3.2 | 0.00 | 0.10 | 0.00 | 97 | 1017.2 |
| 20260502001516 | 7 | 58 | 0.0 | 3.2 | 0.00 | 0.10 | 0.00 | 97 | 1017.1 |
| 20260502000017 | 7 | 58 | 1.6 | 3.2 | 0.00 | 0.10 | 0.00 | 97 | 1017.2 |
| 20260501234513 | 7 | 58 | 0.0 | 3.2 | 0.00 | 0.10 | 0.00 | 96 | 1017.4 |
| 20260501233011 | 7 | 61 | 0.0 | 0.0 | 0.00 | 0.10 | 0.00 | 97 | 1017.5 |
| 20260501231509 | 8 | 61 | 0.0 | 3.2 | 0.00 | 0.10 | 0.00 | 97 | 1017.5 |
| 20260501230010 | 8 | 60 | 0.0 | 1.6 | 0.00 | 0.10 | 0.10 | 96 | 1017.4 |
| 20260501224507 | 8 | 61 | 0.0 | 1.6 | 0.00 | 0.10 | 0.10 | 96 | 1017.5 |
| 20260501223007 | 9 | 61 | 0.0 | 0.0 | 0.00 | 0.10 | 0.10 | 96 | 1017.4 |
| 20260501221509 | 9 | 61 | 0.0 | 3.2 | 0.00 | 0.10 | 0.10 | 96 | 1017.4 |